Location: Lady Lake Astronomical Observatory
(47.6963°N, 53.2446°W)
Time: 21:00:39
(UTC-02:-30)

OTV 5 (USA 277) - Visible Passes

Search period start: 22 October 2019 00:00
Search period end: 01 November 2019 00:00
Orbit: 310 x 324 km, 54.5° (Epoch: 17 October)

Date Brightness Start Highest point End Pass type
(mag) Time Alt. Az. Time Alt. Az. Time Alt. Az.
28 Oct ? 19:09:28 10° SSE 19:10:30 14° SSE 19:10:30 14° SSE visible
29 Oct ? 19:22:53 10° SSW 19:24:58 30° SSE 19:24:58 30° SSE visible
30 Oct ? 19:37:08 10° SW 19:39:20 53° SW 19:39:20 53° SW visible
31 Oct ? 18:18:08 10° S 18:20:18 21° SE 18:22:29 10° E visible
31 Oct ? 19:51:47 10° WSW 19:53:36 33° WNW 19:53:36 33° WNW visible
